Tallahassee, FL

8:57 PM EDT on August 16, 2017 (GMT -0400)
Tallahassee Regional

Weather History for KTLH - May, 2012

Change the Weather History Date:

Friday, May 4, 2012

  Actual Average Record
Temperature  
Mean Temperature 79 °F 71 °F  
Max Temperature 89 °F 84 °F 96 °F (1930)
Min Temperature 68 °F 57 °F 34 °F (1971)
Degree Days  
Heating Degree Days 0    
Month to date heating degree days 0  
Since 1 July heating degree days 1055  
Cooling Degree Days 14    
Month to date cooling degree days 55  
Year to date cooling degree days 425  
Growing Degree Days 28 (Base 50)    
Moisture  
Dew Point 66 °F    
Average Humidity 69    
Maximum Humidity 90    
Minimum Humidity 48    
Precipitation  
Precipitation 0.00 in 0.08 in 2.43 in (2017)
Month to date precipitation 0.00 0.33  
Year to date precipitation 12.62 18.52  
Sea Level Pressure  
Sea Level Pressure 30.05 in    
Wind  
Wind Speed 3 mph (SSW)    
Max Wind Speed 14 mph    
Max Gust Speed 18 mph    
Visibility 10 miles    
Events      
T = Trace of Precipitation, MM = Missing Value Source: NWS Daily Summary

Daily Weather History Graph

Daily Weather History Graph

Search for Another Location

Airport or City:

Trip Planner

Search our weather history database for the weather conditions in past years. The results will help you decide how hot, cold, wet, or windy it might be!

Date:

Astronomy

May. 04, 2012 Rise Set
Actual Time 6:50 AM EDT 8:17 PM EDT
Civil Twilight 6:25 AM EDT 8:43 PM EDT
Nautical Twilight 5:54 AM EDT 9:14 PM EDT
Astronomical Twilight 5:22 AM EDT 9:46 PM EDT
Moon 6:57 PM EDT (5/4) 5:25 AM EDT (5/4)
Length of Visible Light 14h 18m
Length of Day
13h 26m
Waxing Gibbous, 97% of the Moon is Illuminated
May 4
Waxing Gibbous
May 5
Full
May 12
Last Quarter
May 20
New
May 28
First Quarter

Hourly Weather History & Observations

Time (EDT) Temp. Heat Index Dew Point Humidity Pressure Visibility Wind Dir Wind Speed Gust Speed Precip Events Conditions
12:53 AM 70.0 °F - 64.9 °F 84% 30.06 in 10.0 mi Calm Calm - N/A   Clear
1:53 AM 71.1 °F - 66.0 °F 84% 30.06 in 10.0 mi ESE 3.5 mph - N/A   Scattered Clouds
2:53 AM 70.0 °F - 66.9 °F 90% 30.04 in 10.0 mi Calm Calm - N/A   Scattered Clouds
3:53 AM 70.0 °F - 66.9 °F 90% 30.04 in 10.0 mi Calm Calm - N/A   Partly Cloudy
4:53 AM 68.0 °F - 64.9 °F 90% 30.04 in 10.0 mi Calm Calm - N/A   Clear
5:53 AM 70.0 °F - 66.0 °F 87% 30.04 in 8.0 mi Calm Calm - N/A   Partly Cloudy
6:38 AM 69.8 °F - 64.4 °F 83% 30.06 in 10.0 mi Calm Calm - N/A   Scattered Clouds
6:53 AM 69.1 °F - 64.9 °F 87% 30.06 in 10.0 mi Calm Calm - N/A   Scattered Clouds
7:53 AM 71.1 °F - 66.0 °F 84% 30.08 in 10.0 mi Calm Calm - N/A   Partly Cloudy
8:53 AM 75.9 °F - 66.9 °F 74% 30.09 in 10.0 mi ESE 4.6 mph - N/A   Partly Cloudy
9:53 AM 80.1 °F 82.7 °F 68.0 °F 67% 30.10 in 10.0 mi Calm Calm - N/A   Scattered Clouds
10:53 AM 80.1 °F 82.1 °F 66.0 °F 62% 30.11 in 10.0 mi Calm Calm - N/A   Scattered Clouds
11:53 AM 84.9 °F 86.1 °F 64.0 °F 49% 30.10 in 10.0 mi SSE 4.6 mph - N/A   Scattered Clouds
12:53 PM 84.9 °F 86.6 °F 64.9 °F 51% 30.09 in 10.0 mi South 6.9 mph - N/A   Mostly Cloudy
1:53 PM 84.0 °F 86.5 °F 66.9 °F 56% 30.07 in 10.0 mi SW 12.7 mph - N/A   Mostly Cloudy
2:53 PM 84.9 °F 87.6 °F 66.9 °F 55% 30.05 in 10.0 mi SW 6.9 mph - N/A   Mostly Cloudy
3:53 PM 86.0 °F 87.6 °F 64.9 °F 49% 30.04 in 10.0 mi Variable 4.6 mph - N/A   Mostly Cloudy
4:53 PM 86.0 °F 87.6 °F 64.9 °F 49% 30.01 in 10.0 mi South 8.1 mph - N/A   Mostly Cloudy
5:53 PM 84.9 °F 87.6 °F 66.9 °F 55% 30.01 in 10.0 mi WSW 6.9 mph - N/A   Mostly Cloudy
6:53 PM 84.9 °F 86.1 °F 64.0 °F 49% 30.00 in 10.0 mi SSW 9.2 mph - N/A   Mostly Cloudy
7:53 PM 82.0 °F 83.8 °F 64.9 °F 56% 30.01 in 10.0 mi SSW 8.1 mph - N/A   Scattered Clouds
8:53 PM 79.0 °F - 64.9 °F 62% 30.01 in 10.0 mi SSW 4.6 mph - N/A   Partly Cloudy
9:53 PM 75.0 °F - 66.0 °F 73% 30.02 in 10.0 mi Calm Calm - N/A   Clear
10:53 PM 73.9 °F - 66.0 °F 76% 30.03 in 10.0 mi Calm Calm - N/A   Clear
11:53 PM 70.0 °F - 64.9 °F 84% 30.03 in 10.0 mi Calm Calm - N/A   Clear